Snowfall_Accumulation
nan nan nan nan nan nan nan nan nan nan nan nan nan nan nan nan nan 0.0 0.0 0.0 0.0 0.4 0.0 0.0 0.0 0.0 0.1 0.0 0.3 0.0 0.7 0.5 0.4 0.8 2.0 0.4 1.0 0.7 1.1 0.6 3.6 7.4 7.3 5.6 3.3 5.1 6.5 0.1 0.0 1.3 1.4 0.0 0.0 0.0
nan nan nan nan nan nan nan nan nan nan nan nan nan nan nan nan nan nan 0.0 0.0 0.0 0.1 0.1 0.0 0.0 0.0 0.0 0.0 0.0 0.0 0.2 0.1 0.7 2.0 1.5 1.2 1.3 1.7 0.6 2.5 0.7 8.7 5.7 9.9 2.6 2.5 0.5 0.4 0.4 0.3 0.2 0.1 0.1 0.1
nan nan nan nan nan nan nan nan nan nan nan nan nan nan nan nan nan nan 0.0 0.0 0.0 0.6 0.3 0.0 0.0 0.0 0.0 0.0 0.0 0.0 0.0 0.0 0.0 0.0 0.9 0.4 0.5 0.2 2.8 0.8 0.9 0.7 0.2 6.6 2.2 0.2 0.4 0.6 0.0 0.2 0.3 0.4 0.1 0.0
nan nan nan nan nan nan nan nan nan nan nan nan nan nan nan nan nan nan 0.0 0.0 0.0 0.0 3.5 0.1 0.0 0.0 0.0 0.0 0.0 0.0 0.0 0.0 0.0 0.0 0.4 0.7 1.0 0.0 0.1 0.3 0.6 2.3 0.4 1.0 2.1 0.7 0.2 0.1 0.5 0.6 0.3 0.1 0.1 0.0
nan nan nan nan nan nan nan nan nan nan nan nan nan nan nan nan nan nan 0.0 0.0 0.0 0.2 1.3 0.5 0.0 0.0 0.0 0.0 0.0 0.0 0.0 0.0 0.0 0.3 1.8 1.0 0.0 0.3 0.0 0.0 1.8 0.0 0.5 3.8 4.7 1.4 2.0 0.9 1.2 0.2 0.2 0.1 0.0 0.0
nan nan nan nan nan nan nan nan nan nan nan nan nan nan nan nan nan 0.0 1.6 0.0 0.0 0.0 1.5 0.9 0.0 0.0 0.0 0.0 0.0 0.0 0.0 0.0 0.0 0.0 0.4 0.0 0.0 0.1 2.2 0.7 0.0 0.0 0.1 0.4 1.3 0.2 0.1 0.1 0.0 0.0 0.0 0.2 0.1 0.0
nan nan nan nan nan nan nan nan nan nan nan nan nan nan nan nan 0.0 0.3 0.2 0.0 nan 0.0 2.0 4.6 0.2 0.0 0.0 0.0 0.0 0.0 0.0 0.0 0.0 0.1 0.6 0.0 0.0 0.2 0.6 0.3 0.1 0.0 0.0 0.0 0.0 0.0 0.0 0.0 0.1 0.0 0.0 0.0 0.0 0.0
nan nan nan nan nan nan nan nan nan nan nan nan nan nan nan nan nan 0.0 0.0 nan nan 0.0 0.1 7.0 1.0 0.2 0.0 0.1 0.1 0.0 0.0 0.1 0.2 0.0 0.3 0.2 0.1 0.4 1.1 0.1 0.0 0.0 0.0 0.0 0.0 0.0 0.0 0.0 0.0 0.0 0.0 0.0 0.0 0.0
nan nan nan nan nan nan nan nan nan nan nan nan nan nan 0.0 0.0 0.8 0.0 nan nan 0.0 0.2 2.1 4.2 2.2 3.9 0.0 0.0 0.1 0.1 0.0 3.2 0.1 1.0 0.4 0.3 0.4 1.5 0.4 0.0 0.0 0.0 0.0 0.0 0.0 0.0 0.0 0.0 0.0 0.0 0.0 0.0 0.0 0.0
nan nan nan nan nan nan nan nan nan nan nan nan 0.1 1.7 14.7 0.6 nan nan 0.1 2.3 3.4 1.1 0.5 1.1 0.1 1.1 0.2 0.5 0.9 1.3 1.2 1.7 2.9 0.8 0.0 0.8 0.8 0.1 0.0 0.0 0.0 0.0 0.0 0.0 0.0 0.0 0.0 0.0 0.0 0.0 0.0 0.0 0.0 0.0
nan nan nan nan nan nan nan nan nan nan nan 0.5 5.8 1.1 0.0 nan 0.0 0.7 8.9 7.5 2.4 3.9 0.2 0.1 0.1 0.4 0.0 1.8 1.8 0.4 5.3 2.5 3.9 0.6 1.3 0.8 1.4 0.4 0.0 0.1 0.0 0.0 0.0 0.0 0.0 0.0 0.0 0.0 0.0 0.0 0.0 0.0 0.0 0.0
nan nan nan nan nan nan nan nan nan 0.0 0.2 0.0 0.0 0.0 0.0 0.4 3.5 4.3 7.0 3.4 0.6 0.1 0.2 0.5 0.2 0.1 0.4 0.1 1.1 2.3 2.1 4.0 2.1 0.2 3.1 1.0 0.8 0.1 0.0 0.0 0.0 0.0 0.0 0.0 0.0 0.0 0.0 0.0 0.0 0.0 0.0 0.0 0.1 0.2
nan nan nan nan nan nan nan nan nan nan nan 0.0 0.3 2.2 3.1 6.5 30.2 6.3 5.9 2.9 3.9 0.3 0.7 0.5 3.7 0.4 0.5 0.3 2.6 3.2 7.0 6.2 0.2 4.6 0.5 0.7 0.2 0.0 0.0 0.0 0.0 0.0 0.0 0.0 0.0 0.0 0.0 0.0 0.0 0.0 0.1 0.2 1.4 2.4
nan nan nan nan nan nan nan nan nan 0.0 0.0 2.9 8.4 34.7 6.9 7.8 1.4 1.0 0.5 0.5 0.6 0.6 0.4 0.3 0.9 1.1 1.0 2.5 1.8 8.3 1.5 0.7 6.9 3.8 1.8 0.9 0.2 0.0 0.0 0.0 0.0 0.0 0.1 1.9 0.1 0.1 0.2 0.4 1.3 2.6 5.0 5.3 4.6 3.7
nan nan nan nan nan nan nan nan nan 0.0 0.3 7.0 2.1 21.6 6.6 1.9 1.6 1.5 1.1 0.9 0.6 0.4 0.3 0.7 1.1 1.0 4.0 8.1 1.8 1.1 7.4 7.2 2.8 3.6 2.8 1.4 0.2 0.1 0.1 0.1 0.2 0.3 1.7 2.1 2.6 4.0 5.4 4.4 3.2 4.3 5.0 5.3 3.4 6.9
nan nan 0.0 nan nan nan nan nan 0.0 0.3 2.0 3.2 2.2 4.2 1.8 5.2 11.3 7.4 4.7 4.2 0.6 0.6 0.4 0.6 3.1 7.8 6.5 4.0 3.4 2.8 1.8 2.5 5.0 3.0 1.9 0.7 0.4 0.6 0.6 0.7 1.8 2.3 3.8 5.0 6.1 5.9 6.3 7.3 6.7 6.8 6.3 6.9 10.7 9.2
nan 0.0 nan nan nan nan nan 1.3 0.9 2.4 4.0 2.5 9.4 3.0 3.3 4.8 9.4 7.2 3.6 2.3 0.5 2.0 8.1 2.5 6.5 3.0 1.2 3.5 2.1 1.6 7.2 4.7 2.4 2.2 1.8 0.7 1.0 1.5 2.6 2.6 5.2 3.9 3.6 4.7 6.2 4.7 6.1 6.3 5.6 4.1 5.4 8.1 5.7 6.3
0.0 0.0 nan nan nan nan 1.4 1.9 1.9 2.3 3.0 2.7 10.2 8.7 3.5 4.1 7.0 6.5 3.8 1.9 2.6 2.3 1.2 0.5 0.6 1.7 8.4 3.1 7.1 5.7 4.0 4.2 2.7 2.7 2.8 2.5 2.0 2.9 2.3 2.5 3.9 3.4 2.8 5.1 4.9 4.3 4.0 4.8 3.8 6.3 4.4 4.6 4.7 5.8
0.0 0.0 nan nan 0.0 0.3 3.3 2.0 0.5 1.9 4.2 3.0 4.0 2.8 3.1 6.8 4.9 3.7 4.1 2.8 2.6 2.2 2.1 2.8 4.9 4.4 8.4 5.0 7.8 6.6 5.9 3.5 5.1 6.1 6.8 6.6 4.9 5.1 5.2 3.6 3.0 3.5 4.2 4.0 4.3 5.1 4.6 3.7 4.5 4.5 4.3 4.7 5.4 7.3
nan nan nan nan nan 0.4 0.7 2.1 0.1 0.3 3.2 4.2 2.4 4.2 3.8 6.8 5.5 9.6 7.0 3.5 2.1 5.3 9.7 8.9 11.2 13.7 9.6 8.2 5.4 5.5 5.3 4.3 2.7 5.8 9.4 8.1 6.1 4.3 5.4 4.2 5.0 3.6 3.3 2.4 3.7 1.7 3.4 3.4 4.0 4.5 4.8 5.3 6.0 7.6
nan nan nan 0.0 0.3 0.2 0.6 2.4 0.5 0.8 1.7 2.2 2.8 1.4 8.0 2.1 5.1 8.3 5.7 1.5 8.0 10.1 9.4 12.7 13.0 14.1 11.3 9.4 5.3 3.0 4.4 1.9 5.5 2.5 4.6 8.7 9.0 3.4 4.5 5.4 3.9 3.7 3.5 4.5 5.7 7.5 4.1 4.6 5.0 4.3 11.5 13.7 9.5 7.7
0.1 nan 0.4 0.2 0.8 0.7 1.7 0.4 0.8 1.1 1.7 3.5 2.6 1.4 7.7 15.2 14.0 11.0 1.4 8.8 11.9 14.3 12.1 11.7 11.7 10.1 8.0 8.0 9.4 5.2 7.0 3.1 3.0 2.5 2.2 1.7 7.1 5.1 6.6 6.6 3.9 6.6 6.1 7.4 4.7 7.1 5.8 3.9 4.4 5.7 8.9 13.3 6.3 7.1
nan 0.1 0.6 0.4 2.2 5.5 17.7 1.8 2.1 1.2 4.9 5.3 2.2 3.3 8.6 7.2 6.5 0.7 8.8 7.6 12.5 12.4 10.7 10.0 9.7 9.2 8.0 9.0 3.7 5.0 6.7 1.8 4.2 5.5 5.8 5.6 5.2 5.4 4.6 5.5 6.0 7.1 6.3 6.3 4.0 4.5 6.0 4.2 5.9 11.3 8.3 8.7 15.3 17.2
nan 3.8 7.1 5.0 3.7 19.1 1.9 6.4 0.9 1.6 2.1 4.8 4.6 6.7 1.6 4.8 1.5 5.9 8.7 10.1 13.6 8.0 7.5 9.0 6.2 7.9 4.7 2.4 4.7 5.7 7.8 4.2 3.1 3.8 4.9 3.0 3.2 6.1 4.3 4.4 4.9 4.6 3.2 2.7 3.8 5.8 4.9 10.2 7.4 8.6 13.2 21.6 26.4 22.7
16.5 24.9 11.8 31.8 4.3 10.6 8.0 6.7 3.6 2.3 8.2 5.8 4.6 10.2 16.1 2.0 10.6 7.7 5.3 9.0 8.2 9.4 8.9 7.9 4.5 4.3 4.7 7.0 6.2 6.8 5.7 4.0 4.8 3.1 6.2 4.8 3.5 3.3 3.4 2.6 2.7 2.8 2.6 8.7 10.9 14.2 14.3 13.5 14.3 15.5 10.3 24.8 9.5 12.2
37.6 17.6 22.5 6.1 12.7 6.2 4.1 9.8 10.6 12.2 6.4 8.1 7.6 4.7 4.8 10.2 7.6 10.0 4.1 8.7 10.0 6.8 17.3 13.8 10.1 7.0 6.4 5.1 6.4 5.4 7.0 4.4 2.9 3.6 5.9 3.7 4.6 5.5 7.2 5.9 4.8 5.1 3.3 6.2 10.7 18.5 14.2 15.1 18.8 10.4 18.1 10.1 8.7 21.6
34.3 20.7 2.1 0.3 0.7 0.6 11.3 8.2 1.9 5.4 7.8 10.9 6.6 9.3 9.2 16.4 14.2 6.0 3.8 4.0 3.9 6.5 5.6 4.6 3.6 4.9 5.8 6.8 6.5 6.4 5.4 4.6 4.6 4.8 2.7 2.2 2.2 2.0 4.9 10.5 7.5 6.3 4.0 6.7 10.1 19.5 20.7 20.0 21.5 16.1 20.1 19.5 21.0 24.0
6.2 2.9 13.5 8.1 10.4 2.1 8.7 6.4 7.3 9.3 5.4 2.4 5.7 11.8 13.4 12.2 8.6 6.6 5.9 6.5 7.4 4.3 4.2 4.5 4.2 3.2 3.8 4.6 5.7 6.8 8.1 7.9 7.3 4.9 3.4 3.1 3.0 5.8 6.1 6.7 6.4 7.7 7.5 13.6 17.0 18.7 15.1 21.8 24.7 24.3 23.3 25.9 27.4 23.0
8.2 3.3 3.6 13.2 6.6 6.3 9.4 10.0 8.9 4.1 2.5 4.6 15.9 9.9 8.9 5.9 13.9 8.9 9.3 7.5 6.9 6.2 7.3 8.7 12.8 13.0 8.1 6.9 9.3 7.7 8.8 10.2 9.6 10.5 13.1 14.3 13.2 12.0 10.0 10.0 9.9 13.1 11.7 12.6 7.7 9.9 12.3 18.6 21.8 24.4 20.8 27.3 28.0 30.0
7.7 3.6 7.7 8.9 11.9 9.6 18.7 12.5 14.8 12.1 2.4 4.7 3.1 2.4 3.7 9.8 15.6 8.3 8.2 8.2 10.0 21.2 28.4 22.6 21.4 20.0 30.5 21.5 19.9 13.8 14.4 17.2 14.3 20.5 22.7 17.6 15.1 14.1 15.7 19.1 18.5 17.8 17.2 30.5 21.2 10.9 8.9 19.8 16.4 31.0 27.3 26.4 26.9 28.9
4.0 9.9 10.9 6.9 13.6 20.7 18.6 19.1 19.6 10.3 10.9 15.9 16.8 18.2 14.8 11.9 14.1 10.0 9.5 13.2 14.7 33.9 34.4 36.5 35.5 33.6 28.9 19.5 29.4 28.1 20.8 27.6 12.5 9.6 9.4 14.4 16.9 21.8 22.9 20.2 21.1 23.1 23.7 23.1 29.9 25.1 23.9 27.8 27.7 26.4 20.3 17.5 19.1 20.7
12.9 18.9 19.8 12.8 17.6 25.3 15.4 29.2 21.6 20.4 24.7 23.7 27.6 23.5 29.3 26.3 16.0 14.9 18.7 25.0 27.3 31.0 9.0 24.9 36.1 19.5 16.7 15.0 24.4 19.7 10.0 13.9 14.2 14.3 13.0 17.8 20.7 23.3 14.8 12.8 27.3 26.4 22.6 22.9 22.7 23.8 19.3 26.0 25.5 27.7 24.9 20.8 19.6 17.6
27.6 20.7 15.7 14.5 27.2 14.5 17.2 21.1 6.3 20.8 19.7 22.5 27.2 24.0 23.8 20.8 14.6 21.2 11.2 22.0 26.4 27.9 24.2 31.2 32.2 35.9 19.6 16.7 16.0 17.2 12.9 17.5 16.1 10.4 9.2 9.2 9.1 10.3 17.5 24.9 28.7 23.9 15.5 21.5 24.5 23.1 18.4 14.4 18.4 18.8 20.4 23.3 21.5 19.8
Water_Equivalent
nan nan nan nan nan nan nan nan nan nan nan nan nan nan nan nan nan 0.00 0.00 0.00 0.00 0.11 0.00 0.00 0.00 0.00 0.01 0.00 0.06 0.00 0.15 0.11 0.10 0.20 0.73 0.12 0.31 0.13 0.18 0.10 0.62 1.13 1.19 1.07 0.60 0.89 0.95 0.01 0.00 0.20 0.26 0.00 0.00 0.00
nan nan nan nan nan nan nan nan nan nan nan nan nan nan nan nan nan nan 0.00 0.00 0.00 0.01 0.02 0.00 0.00 0.00 0.00 0.00 0.00 0.00 0.04 0.02 0.16 0.41 0.33 0.26 0.37 0.48 0.10 0.38 0.19 1.32 0.97 1.22 0.41 0.40 0.09 0.07 0.07 0.06 0.03 0.01 0.02 0.03
nan nan nan nan nan nan nan nan nan nan nan nan nan nan nan nan nan nan 0.00 0.00 0.00 0.18 0.09 0.01 0.00 0.00 0.00 0.00 0.00 0.00 0.00 0.00 0.00 0.00 0.19 0.10 0.10 0.04 0.59 0.15 0.16 0.15 0.04 1.47 0.36 0.04 0.06 0.11 0.01 0.03 0.05 0.08 0.01 0.00
nan nan nan nan nan nan nan nan nan nan nan nan nan nan nan nan nan nan 0.00 0.00 0.00 0.00 0.79 0.03 0.00 0.00 0.00 0.00 0.00 0.00 0.00 0.00 0.00 0.00 0.11 0.19 0.29 0.00 0.04 0.06 0.12 0.44 0.08 0.24 0.41 0.18 0.04 0.03 0.09 0.12 0.06 0.02 0.02 0.00
nan nan nan nan nan nan nan nan nan nan nan nan nan nan nan nan nan nan 0.00 0.00 0.00 0.04 0.30 0.12 0.00 0.00 0.00 0.00 0.00 0.00 0.00 0.00 0.00 0.09 0.54 0.26 0.00 0.08 0.00 0.01 0.31 0.01 0.09 0.61 0.79 0.26 0.41 0.19 0.33 0.07 0.05 0.02 0.00 0.00
nan nan nan nan nan nan nan nan nan nan nan nan nan nan nan nan nan 0.00 0.60 0.00 0.00 0.00 0.36 0.31 0.00 0.00 0.00 0.00 0.00 0.00 0.00 0.00 0.00 0.01 0.14 0.01 0.00 0.02 0.63 0.15 0.00 0.00 0.03 0.07 0.25 0.04 0.03 0.04 0.00 0.00 0.00 0.04 0.02 0.00
nan nan nan nan nan nan nan nan nan nan nan nan nan nan nan nan 0.00 0.13 0.04 0.00 nan 0.00 0.52 1.42 0.08 0.00 0.00 0.00 0.00 0.00 0.00 0.00 0.00 0.03 0.17 0.00 0.00 0.04 0.21 0.11 0.03 0.00 0.00 0.00 0.00 0.00 0.00 0.00 0.01 0.00 0.00 0.00 0.01 0.00
nan nan nan nan nan nan nan nan nan nan nan nan nan nan nan nan nan 0.00 0.00 nan nan 0.00 0.03 2.34 0.35 0.07 0.00 0.03 0.05 0.00 0.01 0.02 0.05 0.00 0.09 0.08 0.03 0.11 0.25 0.02 0.00 0.00 0.00 0.00 0.00 0.00 0.00 0.00 0.00 0.00 0.00 0.00 0.00 0.00
nan nan nan nan nan nan nan nan nan nan nan nan nan nan 0.00 0.00 0.26 0.00 nan nan 0.00 0.06 0.68 1.61 0.77 1.31 0.00 0.01 0.03 0.02 0.01 0.72 0.02 0.28 0.14 0.07 0.12 0.32 0.07 0.00 0.00 0.00 0.00 0.00 0.00 0.00 0.00 0.00 0.00 0.00 0.00 0.00 0.00 0.00
nan nan nan nan nan nan nan nan nan nan nan nan 0.03 0.66 3.74 0.19 nan nan 0.02 0.74 0.93 0.28 0.15 0.41 0.04 0.39 0.06 0.18 0.26 0.37 0.30 0.45 0.92 0.24 0.01 0.25 0.16 0.01 0.01 0.01 0.00 0.00 0.00 0.00 0.00 0.00 0.00 0.00 0.00 0.00 0.00 0.00 0.00 0.00
nan nan nan nan nan nan nan nan nan nan nan 0.21 1.56 0.34 0.00 nan 0.00 0.18 1.94 1.89 0.57 1.02 0.09 0.05 0.02 0.12 0.01 0.65 0.63 0.13 1.52 0.68 1.20 0.13 0.32 0.20 0.27 0.07 0.00 0.01 0.00 0.00 0.00 0.00 0.00 0.00 0.00 0.00 0.00 0.00 0.00 0.00 0.00 0.00
nan nan nan nan nan nan nan nan nan 0.00 0.07 0.00 0.01 0.00 0.00 0.11 0.85 1.32 2.30 1.10 0.20 0.05 0.07 0.17 0.09 0.03 0.15 0.06 0.33 0.85 0.66 1.25 0.55 0.06 0.86 0.25 0.16 0.01 0.00 0.00 0.00 0.00 0.00 0.00 0.00 0.00 0.00 0.00 0.00 0.00 0.00 0.00 0.01 0.03
nan nan nan nan nan nan nan nan nan nan nan 0.00 0.09 0.64 0.67 2.22 6.00 2.15 1.48 0.88 1.40 0.14 0.27 0.20 1.49 0.14 0.18 0.11 0.99 1.15 2.21 1.74 0.07 1.46 0.13 0.15 0.03 0.00 0.00 0.00 0.00 0.00 0.01 0.00 0.00 0.00 0.00 0.00 0.00 0.01 0.03 0.04 0.25 0.31
nan nan nan nan nan nan nan nan nan 0.00 0.00 0.67 2.53 7.07 2.39 2.70 0.43 0.30 0.16 0.19 0.23 0.23 0.16 0.12 0.34 0.35 0.40 0.89 0.67 2.65 0.47 0.25 1.87 0.97 0.43 0.18 0.03 0.01 0.01 0.01 0.00 0.00 0.03 0.50 0.02 0.02 0.04 0.07 0.17 0.39 0.80 0.88 0.68 0.43
nan nan nan nan nan nan nan nan nan 0.00 0.06 1.64 0.65 3.77 1.67 0.54 0.49 0.53 0.43 0.36 0.22 0.14 0.13 0.28 0.42 0.31 1.16 2.49 0.56 0.35 2.04 1.90 0.70 0.78 0.60 0.31 0.04 0.03 0.03 0.03 0.04 0.07 0.31 0.34 0.44 0.75 0.87 0.65 0.48 0.52 0.61 0.63 0.39 0.93
nan nan 0.00 nan nan nan nan nan 0.01 0.09 0.49 0.79 0.62 1.14 0.63 1.69 3.43 2.66 1.79 1.53 0.19 0.20 0.16 0.22 0.85 2.19 1.73 1.12 0.84 0.76 0.43 0.54 1.01 0.58 0.39 0.16 0.07 0.13 0.12 0.14 0.33 0.39 0.55 0.65 0.74 0.75 0.91 0.93 0.86 0.80 0.80 0.85 1.44 1.26
nan 0.00 nan nan nan nan nan 0.31 0.20 0.46 1.02 0.70 2.29 0.82 0.86 1.46 2.35 1.91 1.11 0.61 0.14 0.63 2.67 0.73 1.64 0.69 0.31 0.86 0.41 0.34 1.54 0.93 0.47 0.40 0.36 0.14 0.18 0.27 0.42 0.41 0.75 0.51 0.48 0.57 0.72 0.53 0.65 0.71 0.67 0.42 0.54 0.74 0.51 0.54
0.00 0.00 nan nan nan nan 0.33 0.38 0.45 0.51 0.68 0.64 2.11 1.87 0.74 0.88 1.55 1.69 1.01 0.45 0.65 0.56 0.32 0.11 0.16 0.38 1.94 0.62 1.30 0.95 0.67 0.70 0.53 0.54 0.51 0.45 0.37 0.50 0.39 0.42 0.53 0.46 0.39 0.60 0.54 0.47 0.42 0.53 0.37 0.60 0.37 0.39 0.39 0.48
0.00 0.00 nan nan 0.00 0.07 0.64 0.42 0.13 0.46 0.87 0.70 0.88 0.64 0.71 1.38 0.99 0.72 0.99 0.64 0.52 0.45 0.45 0.58 1.06 0.75 1.30 0.78 1.21 0.99 0.93 0.63 0.68 0.95 1.03 1.00 0.74 0.69 0.68 0.51 0.43 0.49 0.48 0.48 0.50 0.61 0.55 0.37 0.45 0.45 0.42 0.47 0.55 0.70
nan nan nan nan nan 0.12 0.15 0.54 0.05 0.09 0.68 0.79 0.55 0.76 0.71 1.09 1.10 2.38 1.66 0.68 0.40 1.04 1.64 1.41 1.38 1.57 1.14 1.09 0.82 0.79 0.80 0.76 0.50 0.84 1.26 1.16 1.01 0.61 0.74 0.56 0.67 0.46 0.44 0.30 0.49 0.38 0.38 0.40 0.42 0.47 0.52 0.57 0.86 1.00
nan nan nan 0.00 0.09 0.05 0.22 0.61 0.15 0.21 0.38 0.42 0.59 0.32 1.30 0.47 0.99 1.60 1.12 0.30 1.81 1.50 1.16 1.35 1.52 1.68 1.49 1.27 0.89 0.51 0.68 0.34 0.78 0.39 0.60 1.06 1.13 0.52 0.61 0.77 0.55 0.51 0.42 0.49 0.86 0.80 0.64 0.58 0.52 0.53 2.58 2.96 1.86 1.42
0.02 nan 0.14 0.06 0.30 0.22 0.56 0.14 0.22 0.30 0.44 0.70 0.53 0.34 1.53 3.22 2.92 1.84 0.30 1.64 1.32 1.35 1.25 1.26 1.21 1.11 0.88 0.87 1.08 0.67 0.84 0.46 0.44 0.45 0.54 0.33 0.80 0.63 0.67 0.68 0.44 0.75 0.71 1.00 0.59 1.15 0.76 0.47 0.74 1.03 1.85 2.79 1.15 1.29
nan 0.05 0.22 0.12 0.62 1.32 2.83 0.42 0.54 0.28 1.11 1.10 0.55 0.68 1.70 1.34 1.09 0.15 1.53 0.76 1.17 1.28 1.26 1.05 1.02 0.99 0.82 0.95 0.39 0.55 0.76 0.22 0.52 0.61 0.67 0.60 0.54 0.62 0.51 0.58 0.63 1.12 0.92 0.64 0.44 0.69 1.03 1.03 1.13 2.47 1.78 1.79 3.27 3.55
nan 1.03 1.83 1.42 1.01 3.08 0.59 1.64 0.24 0.41 0.54 1.03 1.03 1.19 0.26 0.82 0.33 1.09 1.24 1.12 1.28 0.83 0.75 0.87 0.69 0.79 0.49 0.23 0.46 0.56 0.80 0.55 0.35 0.42 0.60 0.39 0.36 0.56 0.42 0.43 0.55 0.54 0.41 0.36 0.65 1.11 0.94 2.36 2.19 1.70 2.71 4.77 5.80 4.73
3.52 4.52 2.86 4.24 1.28 2.54 1.97 1.76 0.88 0.60 1.39 1.33 0.91 1.70 2.55 0.46 1.64 1.27 0.69 0.86 0.92 1.00 0.89 0.86 0.56 0.53 0.49 0.64 0.56 0.60 0.55 0.47 0.47 0.33 0.62 0.51 0.46 0.46 0.41 0.32 0.37 0.40 0.51 1.94 2.28 3.14 3.13 2.95 3.13 3.17 1.95 5.27 1.76 2.25
5.59 4.23 3.35 1.52 2.61 1.50 0.87 1.58 1.71 2.17 1.21 1.37 1.48 0.87 1.20 1.91 1.23 1.28 0.45 1.08 1.40 0.67 2.72 2.02 1.26 0.70 0.52 0.50 0.53 0.45 0.61 0.50 0.37 0.40 0.50 0.36 0.52 0.85 1.25 1.01 0.81 0.81 0.60 1.41 2.34 3.96 2.99 3.26 3.65 1.91 3.36 2.01 2.47 4.31
4.49 3.84 0.49 0.09 0.16 0.13 2.05 1.89 0.49 1.21 1.32 1.60 1.17 1.62 1.74 2.27 1.93 0.58 0.39 0.40 0.37 0.70 0.58 0.54 0.43 0.48 0.50 0.55 0.56 0.62 0.55 0.54 0.53 0.47 0.36 0.30 0.31 0.30 0.91 1.92 1.18 0.88 0.71 1.36 2.22 4.53 4.45 4.17 4.39 2.91 3.50 3.84 4.22 4.53
1.23 0.67 1.65 1.73 2.07 0.51 1.54 1.10 1.29 1.50 1.02 0.41 0.99 1.60 1.98 1.78 0.94 0.66 0.59 0.65 0.95 0.47 0.45 0.47 0.46 0.35 0.44 0.52 0.64 0.86 1.07 1.10 1.14 0.86 0.65 0.58 0.53 1.03 1.06 1.22 1.14 2.54 1.50 2.90 3.70 3.91 3.07 4.64 4.97 4.88 4.22 4.24 4.57 4.24
1.37 0.76 0.83 1.53 1.03 1.16 1.44 1.58 1.37 0.60 0.32 0.76 2.81 1.37 1.19 0.57 1.53 0.96 0.92 0.85 1.00 0.92 1.00 1.23 1.66 2.15 1.19 0.97 1.41 1.11 1.37 1.64 1.52 1.51 2.08 2.12 2.18 1.84 1.62 1.69 1.66 2.20 2.09 2.27 2.56 2.62 2.56 3.24 3.80 4.29 4.40 4.84 4.62 5.03
1.16 0.92 1.51 1.42 1.32 1.21 2.79 1.93 2.42 2.02 0.32 0.82 0.50 0.37 0.43 1.03 1.50 0.96 1.08 1.08 1.44 3.37 5.03 3.96 3.64 3.46 4.93 3.46 2.87 2.10 2.37 3.11 2.53 3.45 3.66 2.67 2.27 2.16 2.54 3.21 3.17 3.09 3.04 5.62 3.25 1.53 2.50 3.33 3.74 4.86 4.14 3.74 4.06 4.28
0.89 2.17 2.24 1.37 1.94 3.48 3.21 3.66 3.70 1.88 2.12 3.20 3.42 3.55 2.24 1.49 1.81 1.20 1.09 1.59 2.17 6.17 6.17 6.41 6.19 6.49 5.03 3.08 5.13 4.76 2.95 4.74 1.89 1.40 1.41 2.19 2.64 3.58 3.84 3.35 3.56 4.00 4.17 3.82 4.72 3.33 3.05 3.78 4.09 4.07 2.85 2.51 2.51 2.63
2.43 3.65 2.84 1.67 2.65 4.67 2.90 5.77 4.44 3.87 4.98 4.43 5.11 4.44 4.86 4.13 2.23 1.79 2.12 3.23 3.98 4.77 2.70 3.88 5.87 2.59 2.44 2.23 3.96 3.05 3.10 1.82 1.87 1.86 1.99 2.61 3.26 3.77 2.39 2.00 4.59 4.65 3.75 3.50 3.35 3.41 2.76 3.50 3.28 3.67 3.11 2.72 2.43 2.16
5.50 3.92 2.60 2.29 4.77 2.69 3.12 4.10 1.19 3.69 3.25 3.73 4.31 3.81 3.94 3.27 1.84 2.47 1.19 2.77 3.48 3.77 3.11 4.38 4.64 5.59 2.80 2.41 2.18 2.39 2.87 2.09 2.65 3.45 3.03 3.02 3.00 2.89 2.67 4.00 4.83 3.71 2.26 3.13 3.51 3.13 2.67 1.98 2.10 2.36 2.40 2.74 2.47 2.24
SL_Ratio
nan nan nan nan nan nan nan nan nan nan nan nan nan nan nan nan nan nan nan nan nan 3.2 nan nan nan nan 4.2 nan 4.6 nan 4.7 4.7 3.7 4.0 2.7 3.2 3.2 5.3 6.2 6.5 5.8 6.5 6.2 5.2 5.4 5.7 6.8 5.8 nan 6.7 5.4 4.3 nan 2.5
nan nan nan nan nan nan nan nan nan nan nan nan nan nan nan nan nan nan nan nan nan 4.8 4.3 nan nan nan nan nan nan nan 5.4 4.3 4.2 5.0 4.6 4.6 3.6 3.6 6.2 6.7 3.5 6.6 5.9 8.1 6.5 6.2 5.7 5.7 6.0 5.5 5.7 5.7 4.9 5.5
nan nan nan nan nan nan nan nan nan nan nan nan nan nan nan nan nan nan nan nan nan 3.2 3.2 3.8 nan nan nan nan nan nan nan nan nan nan 4.8 4.1 5.1 4.4 4.8 5.1 5.4 4.7 4.6 4.5 6.0 5.3 5.7 5.5 5.6 5.6 5.4 5.6 5.4 nan
nan nan nan nan nan nan nan nan nan nan nan nan nan nan nan nan nan nan nan nan nan 2.5 4.4 3.8 nan nan nan nan nan nan nan nan nan nan 3.7 3.6 3.4 4.5 3.3 4.6 5.3 5.2 4.5 4.1 5.3 4.2 5.1 5.0 5.1 5.1 5.0 5.2 5.0 nan
nan nan nan nan nan nan nan nan nan nan nan nan nan nan nan nan nan nan nan nan nan 4.6 4.2 4.2 nan nan nan nan nan nan nan nan nan 3.5 3.2 4.1 5.0 4.1 2.9 2.9 5.7 4.8 5.5 6.2 5.9 5.2 4.9 4.7 3.5 3.6 4.6 5.3 nan nan
nan nan nan nan nan nan nan nan nan nan nan nan nan nan nan nan nan nan 2.7 nan nan nan 4.2 3.1 nan nan nan nan nan nan nan nan nan 3.2 2.9 2.7 nan 4.4 3.5 4.9 6.7 nan 5.1 5.0 5.2 4.2 4.9 3.0 nan nan 0.0 4.7 4.9 nan
nan nan nan nan nan nan nan nan nan nan nan nan nan nan nan nan nan 2.5 3.9 nan nan nan 3.9 3.3 2.5 nan nan nan nan nan nan nan nan 3.0 3.4 3.3 nan 5.0 3.0 2.8 5.8 nan 10.0 nan nan nan 5.0 nan 4.8 nan nan nan 4.5 nan
nan nan nan nan nan nan nan nan nan nan nan nan nan nan nan nan nan nan nan nan nan nan 2.9 3.0 2.8 2.5 nan 2.5 2.5 nan 2.5 3.2 3.9 3.3 3.1 2.9 3.5 3.5 4.5 4.9 nan nan nan nan nan nan 6.0 nan nan nan nan nan nan nan
nan nan nan nan nan nan nan nan nan nan nan nan nan nan nan nan 3.1 nan nan nan nan 3.7 3.1 2.6 2.8 2.9 nan 2.6 2.5 3.5 4.0 4.4 3.0 3.6 3.0 4.4 3.4 4.6 5.5 5.4 nan nan nan nan nan nan nan nan nan nan nan nan nan nan
nan nan nan nan nan nan nan nan nan nan nan nan 2.6 2.6 3.9 3.2 nan nan 3.0 3.1 3.7 3.9 3.6 2.7 2.9 3.0 3.2 2.5 3.5 3.4 3.9 3.8 3.2 3.3 4.2 3.4 5.2 4.9 5.6 5.5 nan nan nan nan nan nan nan nan nan nan nan nan nan nan
nan nan nan nan nan nan nan nan nan nan nan 2.6 3.7 3.3 nan nan 10.0 3.9 4.6 4.0 4.1 3.8 2.8 2.8 3.0 3.2 2.3 2.7 2.9 2.8 3.5 3.7 3.2 4.1 3.9 4.0 5.4 5.8 5.0 5.6 nan nan nan nan nan nan nan nan nan nan nan nan nan 5.0
nan nan nan nan nan nan nan nan nan nan 2.6 nan 4.1 nan 2.5 3.8 4.1 3.3 3.1 3.1 2.9 2.6 2.5 2.9 2.9 2.8 2.9 2.5 3.2 2.7 3.1 3.2 3.7 3.7 3.6 4.0 5.1 6.1 nan nan nan nan nan nan nan nan nan nan nan nan nan 5.0 5.4 5.7
nan nan nan nan nan nan nan nan nan nan nan nan 3.5 3.4 4.6 2.9 5.0 2.9 4.0 3.3 2.8 2.5 2.5 2.5 2.5 2.7 2.8 2.5 2.6 2.8 3.2 3.5 2.6 3.2 3.6 4.6 5.8 2.5 nan nan nan nan 2.6 nan nan nan nan nan nan 5.2 5.3 5.6 5.7 7.8
nan nan nan nan nan nan nan nan nan nan 3.3 4.4 3.3 4.9 2.9 2.9 3.3 3.3 2.9 2.5 2.5 2.5 2.5 2.5 2.5 3.2 2.6 2.8 2.6 3.1 3.2 2.9 3.7 4.0 4.2 5.0 5.5 4.3 4.3 3.8 nan nan 3.7 3.8 4.1 4.3 4.7 5.6 7.7 6.6 6.3 6.1 6.8 8.5
nan nan nan nan nan nan nan nan nan nan 4.1 4.2 3.3 5.7 3.9 3.4 3.2 2.9 2.5 2.5 2.7 2.6 2.5 2.5 2.7 3.3 3.4 3.3 3.1 3.0 3.6 3.8 4.0 4.6 4.7 4.5 4.7 4.4 4.5 4.6 4.9 5.2 5.6 6.2 5.8 5.3 6.2 6.7 6.5 8.2 8.1 8.4 8.6 7.5
nan nan nan nan nan nan nan nan 2.6 3.8 4.1 4.0 3.5 3.7 2.9 3.1 3.3 2.8 2.6 2.7 3.1 3.0 2.6 2.9 3.6 3.6 3.7 3.6 4.1 3.7 4.3 4.6 4.9 5.1 4.9 4.6 4.9 5.0 5.0 5.1 5.6 5.9 7.0 7.7 8.2 7.9 7.0 7.8 7.8 8.4 7.8 8.1 7.5 7.3
nan 3.3 nan nan nan nan nan 4.3 4.2 5.2 4.0 3.6 4.1 3.6 3.8 3.3 4.0 3.8 3.3 3.7 3.8 3.2 3.0 3.4 4.0 4.4 3.8 4.1 5.1 4.6 4.7 5.1 5.1 5.6 5.0 5.2 5.4 5.7 6.2 6.4 6.9 7.6 7.5 8.2 8.6 9.0 9.4 8.9 8.4 9.8 10.0 10.9 11.2 11.7
nan nan nan nan nan nan 4.3 5.0 4.3 4.5 4.4 4.1 4.9 4.6 4.7 4.7 4.5 3.9 3.8 4.3 4.1 4.1 3.8 4.7 3.9 4.6 4.4 5.0 5.5 6.0 6.0 6.1 5.0 5.0 5.6 5.6 5.5 5.8 6.0 6.0 7.3 7.5 7.3 8.6 9.0 9.2 9.5 9.1 10.5 10.4 11.7 12.0 11.9 12.2
nan nan nan nan nan 3.9 5.1 4.7 3.9 4.2 4.9 4.3 4.6 4.4 4.3 4.9 5.0 5.2 4.1 4.4 4.9 4.8 4.6 4.8 4.6 5.9 6.5 6.5 6.4 6.6 6.4 5.6 7.5 6.4 6.6 6.6 6.7 7.4 7.6 6.9 7.0 7.2 8.7 8.3 8.7 8.3 8.4 10.1 10.0 10.2 10.2 10.0 9.9 10.4
nan nan nan nan nan 3.1 4.3 3.8 2.6 3.5 4.7 5.4 4.3 5.5 5.4 6.2 5.0 4.0 4.2 5.1 5.2 5.1 5.9 6.3 8.1 8.7 8.4 7.5 6.6 6.9 6.6 5.6 5.5 6.9 7.5 7.0 6.0 6.9 7.3 7.5 7.4 7.7 7.6 7.9 7.6 4.5 8.8 8.4 9.5 9.7 9.2 9.2 7.0 7.6
nan nan nan nan 3.2 4.0 2.7 3.9 3.7 3.5 4.4 5.3 4.8 4.4 6.2 4.4 5.2 5.2 5.1 5.1 4.4 6.7 8.1 9.4 8.5 8.4 7.6 7.3 5.9 5.8 6.6 5.6 7.0 6.4 7.6 8.2 7.9 6.5 7.4 7.1 7.1 7.2 8.4 9.2 6.6 9.4 6.4 8.0 9.8 8.3 4.5 4.6 5.1 5.4
3.0 nan 2.8 2.5 2.6 3.0 3.1 3.1 3.6 3.7 3.8 5.0 4.9 4.1 5.0 4.7 4.8 6.0 4.7 5.4 9.0 10.5 9.7 9.3 9.6 9.1 9.2 9.2 8.7 7.7 8.3 6.8 6.7 5.4 4.0 5.1 8.9 8.1 9.8 9.7 8.9 8.8 8.5 7.4 7.9 6.1 7.6 8.2 5.9 5.5 4.8 4.8 5.4 5.5
nan 2.8 2.7 3.1 3.5 4.2 6.3 4.2 3.9 4.2 4.4 4.8 4.0 4.9 5.1 5.4 6.0 4.5 5.8 9.9 10.7 9.7 8.5 9.5 9.5 9.3 9.7 9.5 9.5 9.1 8.8 7.9 8.1 9.0 8.6 9.2 9.6 8.7 8.9 9.4 9.5 6.3 6.9 9.9 8.9 6.6 5.9 4.0 5.2 4.6 4.7 4.9 4.7 4.9
nan 3.6 3.9 3.6 3.7 6.2 3.2 3.9 3.7 4.0 3.9 4.6 4.5 5.6 6.0 5.9 4.7 5.4 7.0 9.0 10.6 9.7 10.0 10.4 9.0 10.0 9.6 10.6 10.3 10.2 9.7 7.6 8.8 9.1 8.2 7.7 8.9 10.9 10.3 10.2 9.0 8.6 7.9 7.5 5.8 5.2 5.2 4.3 3.4 5.1 4.8 4.5 4.6 4.8
4.7 5.5 4.1 7.5 3.4 4.1 4.1 3.8 4.1 3.9 5.9 4.4 5.1 6.0 6.3 4.3 6.5 6.0 7.6 10.5 9.0 9.4 10.0 9.2 8.1 8.1 9.5 11.0 11.1 11.3 10.5 8.4 10.1 9.4 10.1 9.5 7.7 7.2 8.3 8.2 7.3 7.0 5.2 4.5 4.8 4.5 4.6 4.6 4.6 4.9 5.3 4.7 5.4 5.4
6.7 4.2 6.7 4.0 4.8 4.2 4.8 6.2 6.2 5.6 5.3 5.9 5.2 5.4 4.0 5.3 6.1 7.8 9.1 8.0 7.1 10.3 6.4 6.9 8.0 9.9 12.3 10.1 12.1 11.9 11.5 8.7 7.8 9.0 11.8 10.2 8.8 6.5 5.7 5.9 5.9 6.3 5.5 4.4 4.6 4.7 4.8 4.6 5.1 5.4 5.4 5.0 3.5 5.0
7.6 5.4 4.2 3.3 4.2 4.3 5.5 4.4 3.8 4.5 6.0 6.8 5.6 5.8 5.3 7.2 7.3 10.3 9.7 9.9 10.3 9.2 9.6 8.6 8.4 10.3 11.6 12.2 11.6 10.2 9.8 8.6 8.6 10.2 7.5 7.5 6.9 6.8 5.4 5.4 6.4 7.1 5.6 4.9 4.5 4.3 4.7 4.8 4.9 5.5 5.7 5.1 5.0 5.3
5.0 4.3 8.2 4.7 5.0 4.2 5.7 5.8 5.6 6.2 5.3 5.7 5.7 7.4 6.8 6.8 9.1 10.1 10.1 10.0 7.8 9.1 9.4 9.5 9.1 9.1 8.7 8.9 8.8 7.9 7.6 7.2 6.4 5.7 5.2 5.4 5.6 5.6 5.8 5.5 5.6 3.0 5.0 4.7 4.6 4.8 4.9 4.7 5.0 5.0 5.5 6.1 6.0 5.4
6.0 4.4 4.4 8.6 6.4 5.4 6.5 6.3 6.5 6.9 7.9 6.0 5.6 7.2 7.5 10.2 9.1 9.2 10.2 8.8 6.9 6.8 7.3 7.1 7.7 6.0 6.8 7.1 6.6 7.0 6.4 6.2 6.3 7.0 6.3 6.7 6.1 6.5 6.1 5.9 6.0 6.0 5.6 5.6 3.0 3.8 4.8 5.8 5.7 5.7 4.7 5.7 6.1 6.0
6.6 3.9 5.1 6.2 9.0 7.9 6.7 6.5 6.1 6.0 7.4 5.7 6.3 6.6 8.6 9.6 10.3 8.6 7.6 7.6 7.0 6.3 5.6 5.7 5.9 5.8 6.2 6.2 6.9 6.6 6.1 5.5 5.7 5.9 6.2 6.6 6.6 6.5 6.2 5.9 5.8 5.8 5.6 5.4 6.5 7.1 3.6 5.9 4.4 6.4 6.6 7.1 6.6 6.8
4.5 4.6 4.9 5.0 7.0 5.9 5.8 5.2 5.3 5.5 5.2 5.0 4.9 5.1 6.6 8.0 7.8 8.4 8.7 8.3 6.8 5.5 5.6 5.7 5.7 5.2 5.8 6.3 5.7 5.9 7.0 5.8 6.6 6.8 6.7 6.6 6.4 6.1 6.0 6.0 5.9 5.8 5.7 6.0 6.3 7.5 7.8 7.4 6.8 6.5 7.1 7.0 7.6 7.9
5.3 5.2 7.0 7.7 6.6 5.4 5.3 5.1 4.9 5.3 5.0 5.3 5.4 5.3 6.0 6.4 7.2 8.4 8.8 7.8 6.9 6.5 3.3 6.4 6.2 7.5 6.8 6.7 6.2 6.5 3.2 7.6 7.6 7.7 6.5 6.8 6.3 6.2 6.2 6.4 6.0 5.7 6.0 6.5 6.8 7.0 7.0 7.4 7.8 7.6 8.0 7.7 8.1 8.2
5.0 5.3 6.0 6.3 5.7 5.4 5.5 5.1 5.3 5.6 6.1 6.0 6.3 6.3 6.0 6.4 7.9 8.6 9.4 8.0 7.6 7.4 7.8 7.1 6.9 6.4 7.0 6.9 7.3 7.2 4.5 8.3 6.1 3.0 3.0 3.0 3.0 3.6 6.6 6.2 5.9 6.4 6.9 6.9 7.0 7.4 6.9 7.3 8.8 7.9 8.5 8.5 8.7 8.9